Weather History for KPEA - March, 2013

Change the Weather History Date:

Friday, March 8, 2013

  Actual Average (KOXV) Record (KOXV)
Temperature  
Mean Temperature 34 °F -  
Max Temperature 44 °F 46 °F 76 °F (1977)
Min Temperature 24 °F 24 °F 3 °F (1967)
Degree Days  
Heating Degree Days 31    
Moisture  
Dew Point 28 °F    
Average Humidity 79    
Maximum Humidity 95    
Minimum Humidity 55    
Precipitation  
Precipitation 0.00 in - - ()
Sea Level Pressure  
Sea Level Pressure 30.24 in    
Wind  
Wind Speed 11 mph (ESE)    
Max Wind Speed 16 mph    
Max Gust Speed 22 mph    
Visibility 7 miles    
Events Rain    
Averages and records for this station are not official NWS values.
T = Trace of Precipitation, MM = Missing Value Source: NWS Daily Summary

Daily Weather History Graph

Daily Weather History Graph

Search for Another Location

Airport or City:

Trip Planner

Search our weather history database for the weather conditions in past years. The results will help you decide how hot, cold, wet, or windy it might be!

Date:

Astronomy

Mar. 08, 2013 Rise Set
Actual Time 6:34 AM CST 6:10 PM CST
Civil Twilight 6:07 AM CST 6:38 PM CST
Nautical Twilight 5:35 AM CST 7:10 PM CST
Astronomical Twilight 5:02 AM CST 7:42 PM CST
Moon 4:21 AM CST (3/8) 3:04 PM CST (3/8)
Length of Visible Light 12h 31m
Length of Day
11h 36m
Waning Crescent, 11% of the Moon is Illuminated
Mar 8
Waning Crescent
Mar 11
New
Mar 19
First Quarter
Mar 27
Full
Apr 2
Last Quarter

Hourly Weather History & Observations

Time (CST) Temp. Windchill Dew Point Humidity Pressure Visibility Wind Dir Wind Speed Gust Speed Precip Events Conditions
12:15 AM 26.2 °F 16.4 °F 21.9 °F 84% 30.31 in 7.0 mi ESE 10.4 mph - N/A   Clear
12:35 AM 26.4 °F 17.3 °F 22.1 °F 84% 30.31 in 7.0 mi ESE 9.2 mph - N/A   Clear
12:55 AM 25.7 °F 16.4 °F 21.7 °F 85% 30.31 in 7.0 mi ESE 9.2 mph - N/A   Clear
1:15 AM 26.6 °F 16.2 °F 22.5 °F 84% 30.31 in 7.0 mi ESE 11.5 mph - N/A   Clear
1:35 AM 26.4 °F 15.5 °F 22.5 °F 85% 30.31 in 7.0 mi ESE 12.7 mph - N/A   Clear
1:55 AM 25.9 °F 14.8 °F 22.1 °F 86% 30.31 in 7.0 mi ESE 12.7 mph - N/A   Clear
2:15 AM 25.7 °F 15.7 °F 22.1 °F 86% 30.31 in 7.0 mi ESE 10.4 mph - N/A   Clear
2:35 AM 25.5 °F 15.5 °F 22.8 °F 89% 30.31 in 5.0 mi ESE 10.4 mph - N/A   Clear
2:55 AM 25.3 °F 15.3 °F 22.8 °F 90% 30.30 in 5.0 mi ESE 10.4 mph - N/A   Clear
3:15 AM 25.2 °F 15.7 °F 23.0 °F 91% 30.30 in 5.0 mi ESE 9.2 mph - N/A   Clear
3:35 AM 24.8 °F 16.1 °F 23.0 °F 93% 30.29 in 5.0 mi ESE 8.1 mph - N/A   Clear
3:55 AM 24.8 °F 15.3 °F 23.0 °F 93% 30.29 in 5.0 mi ESE 9.2 mph - N/A   Clear
4:15 AM 24.8 °F 15.3 °F 23.0 °F 93% 30.29 in 5.0 mi ESE 9.2 mph - N/A   Clear
4:35 AM 25.2 °F 15.1 °F 23.5 °F 94% 30.29 in 5.0 mi ESE 10.4 mph - N/A   Clear
4:55 AM 25.2 °F 15.1 °F 23.5 °F 94% 30.30 in 5.0 mi ESE 10.4 mph - N/A   Clear
5:15 AM 25.3 °F 15.3 °F 23.9 °F 94% 30.30 in 5.0 mi ESE 10.4 mph - N/A   Clear
5:35 AM 25.3 °F 14.7 °F 23.9 °F 94% 30.30 in 5.0 mi ESE 11.5 mph - N/A   Clear
5:55 AM 25.5 °F 15.5 °F 23.9 °F 94% 30.31 in 5.0 mi ESE 10.4 mph - N/A   Clear
6:15 AM 25.3 °F 16.0 °F 23.9 °F 94% 30.31 in 4.0 mi ESE 9.2 mph - N/A   Clear
6:35 AM 25.2 °F 15.1 °F 23.7 °F 94% 30.30 in 3.0 mi ESE 10.4 mph - N/A   Mist
6:55 AM 25.2 °F 15.1 °F 23.9 °F 95% 30.30 in 3.0 mi ESE 10.4 mph - N/A   Mist
7:15 AM 25.7 °F 17.1 °F 24.3 °F 94% 30.30 in 3.0 mi ESE 8.1 mph - N/A   Mist
7:35 AM 26.4 °F 16.0 °F 24.8 °F 94% 30.30 in 3.0 mi ESE 11.5 mph - N/A   Mist
7:55 AM 27.5 °F 18.6 °F 25.7 °F 93% 30.31 in 3.0 mi SE 9.2 mph - N/A   Mist
8:15 AM 28.6 °F 19.3 °F 26.1 °F 90% 30.31 in 4.0 mi SE 10.4 mph - N/A   Clear
8:35 AM 30.0 °F 21.1 °F 26.6 °F 87% 30.31 in 4.0 mi SE 10.4 mph - N/A   Clear
8:55 AM 31.1 °F 23.1 °F 27.1 °F 85% 30.31 in 5.0 mi SE 9.2 mph - N/A   Clear
9:15 AM 32.2 °F 25.0 °F 27.5 °F 83% 30.31 in 5.0 mi SE 8.1 mph - N/A   Haze
9:35 AM 34.0 °F 26.0 °F 28.0 °F 79% 30.30 in 7.0 mi SE 10.4 mph 16.1 mph N/A   Clear
9:55 AM 35.4 °F 26.4 °F 28.2 °F 75% 30.30 in 7.0 mi SE 13.8 mph - N/A   Clear
10:15 AM 36.5 °F 29.2 °F 28.8 °F 74% 30.30 in 7.0 mi SE 10.4 mph - N/A   Clear
10:35 AM 37.4 °F 29.8 °F 28.9 °F 71% 30.30 in 7.0 mi SE 11.5 mph 16.1 mph N/A   Clear
10:55 AM 38.3 °F 30.5 °F 29.3 °F 70% 30.29 in 7.0 mi SSE 12.7 mph - N/A   Clear
11:15 AM 39.2 °F 31.6 °F 29.3 °F 68% 30.29 in 7.0 mi SE 12.7 mph - N/A   Clear
11:35 AM 40.3 °F 34.4 °F 30.0 °F 67% 30.29 in 7.0 mi SE 9.2 mph - N/A   Clear
11:55 AM 40.6 °F 34.3 °F 30.0 °F 66% 30.28 in 7.0 mi ESE 10.4 mph - N/A   Clear
12:15 PM 40.5 °F 32.8 °F 30.0 °F 66% 30.27 in 7.0 mi ESE 13.8 mph 17.3 mph N/A   Clear
12:35 PM 41.0 °F 33.9 °F 30.0 °F 65% 30.26 in 7.0 mi ESE 12.7 mph - N/A   Clear
12:55 PM 41.0 °F 34.3 °F 29.8 °F 64% 30.26 in 7.0 mi ESE 11.5 mph - N/A   Clear
1:15 PM 41.5 °F 34.2 °F 30.2 °F 64% 30.25 in 10.0 mi SE 13.8 mph 17.3 mph N/A   Clear
1:35 PM 41.9 °F 34.6 °F 29.5 °F 61% 30.24 in 10.0 mi ESE 13.8 mph - N/A   Clear
1:55 PM 42.6 °F 35.9 °F 29.5 °F 60% 30.23 in 10.0 mi SE 12.7 mph - N/A   Clear
2:15 PM 42.8 °F 37.0 °F 31.8 °F 65% 30.23 in 10.0 mi ESE 10.4 mph - N/A   Clear
2:35 PM 42.1 °F 35.7 °F 31.6 °F 67% 30.24 in 10.0 mi ESE 11.5 mph - N/A   Clear
2:55 PM 43.0 °F 36.8 °F 32.0 °F 65% 30.22 in 7.0 mi ESE 11.5 mph - N/A   Clear
3:15 PM 42.8 °F 36.6 °F 29.1 °F 58% 30.23 in 10.0 mi ESE 11.5 mph 21.9 mph N/A   Clear
3:35 PM 44.6 °F 38.1 °F 29.3 °F 55% 30.23 in 10.0 mi SE 13.8 mph - N/A   Clear
3:55 PM 43.3 °F 37.7 °F 30.0 °F 59% 30.22 in 10.0 mi ESE 10.4 mph 20.7 mph N/A   Clear
4:15 PM 41.0 °F 34.3 °F 31.6 °F 69% 30.22 in 10.0 mi ESE 11.5 mph - N/A   Clear
4:35 PM 40.1 °F 33.6 °F 31.8 °F 72% 30.21 in 7.0 mi ESE 10.4 mph 16.1 mph N/A   Clear
4:55 PM 39.6 °F 32.5 °F 31.6 °F 73% 30.20 in 7.0 mi ESE 11.5 mph - N/A   Clear
5:15 PM 39.2 °F 32.5 °F 31.1 °F 73% 30.19 in 7.0 mi ESE 10.4 mph - N/A   Clear
5:35 PM 38.3 °F 30.9 °F 31.1 °F 75% 30.19 in 7.0 mi ESE 11.5 mph 17.3 mph N/A   Clear
5:55 PM 38.3 °F 30.5 °F 30.9 °F 75% 30.18 in 7.0 mi ESE 12.7 mph - N/A   Clear
6:15 PM 37.6 °F 29.6 °F 30.9 °F 77% 30.18 in 7.0 mi ESE 12.7 mph - N/A   Clear
6:35 PM 37.4 °F 28.2 °F 30.6 °F 76% 30.17 in 10.0 mi ESE 16.1 mph 20.7 mph N/A   Clear
6:55 PM 37.0 °F 27.7 °F 30.6 °F 77% 30.17 in 10.0 mi ESE 16.1 mph 21.9 mph N/A   Clear
7:15 PM 37.0 °F 28.9 °F 30.6 °F 77% 30.16 in 10.0 mi ESE 12.7 mph 19.6 mph N/A   Clear
7:35 PM 37.0 °F 28.9 °F 30.6 °F 77% 30.16 in 10.0 mi ESE 12.7 mph - N/A   Clear
7:55 PM 37.0 °F 28.1 °F 30.6 °F 77% 30.15 in 10.0 mi ESE 15.0 mph 20.7 mph N/A   Scattered Clouds
8:15 PM 37.4 °F 28.5 °F 31.1 °F 78% 30.15 in 10.0 mi ESE 15.0 mph - N/A   Scattered Clouds
8:35 PM 37.6 °F 29.1 °F 31.1 °F 77% 30.16 in 7.0 mi SE 13.8 mph 18.4 mph N/A   Clear
8:55 PM 37.4 °F 28.9 °F 31.1 °F 78% 30.15 in 7.0 mi SE 13.8 mph - N/A   Scattered Clouds
9:15 PM 37.6 °F 29.6 °F 31.5 °F 79% 30.15 in 7.0 mi SE 12.7 mph - N/A   Scattered Clouds
9:35 PM 37.6 °F 28.8 °F 31.8 °F 80% 30.14 in 7.0 mi SE 15.0 mph - N/A   Light Drizzle
9:55 PM 37.6 °F 28.8 °F 32.0 °F 80% 30.14 in 7.0 mi SE 15.0 mph 20.7 mph N/A   Drizzle
10:15 PM 37.4 °F 29.3 °F 32.0 °F 81% 30.14 in 7.0 mi SE 12.7 mph - N/A   Light Drizzle
10:35 PM 37.4 °F 29.8 °F 32.2 °F 81% 30.12 in 7.0 mi SE 11.5 mph - N/A Rain Light Rain
10:55 PM 37.4 °F 29.3 °F 32.9 °F 84% 30.12 in 7.0 mi SE 12.7 mph - N/A   Light Drizzle
11:15 PM 37.6 °F 31.0 °F 32.9 °F 83% 30.11 in 7.0 mi ESE 9.2 mph - N/A   Drizzle
11:35 PM 36.7 °F 29.4 °F 33.1 °F 87% 30.10 in 7.0 mi ESE 10.4 mph - N/A   Light Drizzle
11:55 PM 36.7 °F 28.9 °F 33.4 °F 88% 30.08 in 7.0 mi ESE 11.5 mph - N/A   Light Drizzle